Theta_e
340 338 338 338 337 336 336 337 340 339 339 337 336 335 335 333 332 333 332 332 331 330
338 338 336 338 339 337 339 338 338 338 337 336 335 335 335 332 333 334 333 329 332 331
336 337 337 337 337 337 338 337 337 336 336 335 335 335 336 334 334 333 332 326 332 332
335 336 337 337 336 337 337 337 335 334 333 334 334 336 335 334 333 332 329 326 330 330
336 336 336 336 336 335 334 334 333 333 333 333 334 335 334 333 332 330 324 323 323 324
334 335 335 335 334 333 333 333 333 334 333 332 333 333 333 332 331 329 327 324 324 324
334 334 334 334 334 333 333 333 334 334 333 333 332 332 333 332 331 328 326 325 324 324
334 334 334 333 333 333 333 333 334 333 333 332 331 327 332 332 329 327 325 325 326 326
332 332 333 333 332 333 332 333 333 332 330 330 325 302 304 319 332 330 326 322 324 324
332 331 332 331 331 332 333 334 332 331 329 328 328 301 302 310 331 328 326 324 323 323
331 330 331 330 331 333 334 332 331 330 329 329 323 302 303 308 331 328 329 327 324 322
331 330 330 330 331 333 331 330 330 330 328 329 323 302 302 317 328 327 327 326 324 323
331 331 330 331 331 332 332 330 328 328 329 314 323 301 304 318 325 323 322 322 319 309
332 332 332 332 332 331 330 328 328 326 328 322 319 315 301 307 327 324 322 318 317 310
Wind_Speed
12 9 9 9 9 7 7 7 9 8 7 7 6 6 6 5 6 6 7 9 7 5
10 11 10 10 8 7 8 7 8 8 7 7 7 7 7 6 7 7 7 6 6 6
10 10 11 10 10 9 8 8 8 8 7 7 7 7 8 6 7 6 5 3 5 5
11 12 11 10 9 9 8 8 8 8 8 8 8 8 7 7 7 6 4 4 5 6
12 11 10 9 9 9 9 8 9 8 8 7 7 6 6 6 6 6 4 5 3 3
11 10 9 9 9 9 9 8 8 7 7 7 6 5 5 5 4 5 6 5 6 3
10 9 9 9 9 9 8 8 8 7 6 5 5 3 3 3 3 4 4 3 6 4
10 9 9 9 8 8 8 7 6 6 5 4 4 2 1 3 4 6 5 3 3 3
10 9 8 8 9 8 7 7 7 7 5 4 3 3 3 3 3 6 5 4 3 2
9 9 9 9 9 8 8 8 7 6 5 5 3 5 2 3 4 5 5 5 4 4
9 9 9 9 9 7 6 8 6 5 4 4 3 3 5 4 6 5 6 5 5 6
10 10 10 10 8 7 9 7 6 5 5 5 4 3 5 5 5 5 4 4 5 6
10 10 10 9 8 6 8 7 6 6 5 5 5 3 5 5 4 5 3 4 4 9
9 9 9 9 6 9 8 7 6 6 5 6 4 3 3 4 3 4 4 3 3 3
Wind_Direction
139 139 144 147 143 148 155 150 157 162 158 151 159 161 174 183 198 191 206 210 215 218
131 139 136 132 134 139 136 145 157 160 159 159 161 173 177 192 195 198 195 209 211 216
137 131 129 133 136 138 137 147 158 155 156 161 172 180 188 185 190 189 182 173 219 217
132 128 126 128 134 139 142 148 144 150 161 171 181 187 189 194 190 191 160 179 213 218
122 122 126 135 137 141 138 139 149 159 167 175 188 186 202 201 197 181 161 178 191 201
127 132 135 137 138 139 137 147 155 159 162 173 173 189 204 205 188 163 173 165 232 200
142 139 139 138 138 144 152 152 150 151 156 163 157 158 163 164 145 176 135 178 210 201
138 136 138 137 146 151 150 148 146 151 147 140 126 71 186 164 153 151 152 165 209 215
141 141 142 147 150 151 148 153 147 139 147 138 104 18 314 292 159 167 159 159 157 142
144 144 152 155 154 156 157 139 137 135 151 132 113 352 297 201 127 147 153 149 142 125
150 151 153 152 158 168 134 138 139 145 142 126 66 341 137 145 118 134 150 147 130 124
158 155 155 152 162 147 144 141 146 140 140 101 80 79 135 140 126 114 114 134 137 134
163 156 156 152 158 145 142 139 140 134 114 74 94 86 148 121 118 114 94 88 109 128
159 148 138 144 156 148 145 138 136 133 111 86 77 108 138 116 149 112 108 106 108 99